Terminal Aerodrome Forecast
Issued by NWS

Home | Current Version | Previous Version | Text Only | Print | Product List | Glossary On
Versions: 1 2 3 4 5 6 7 8 9 10 11 12 13 14 15 16 17 18 19 20 21 22 23 24 25 26 27 28 29
000
FTUS44 KLIX 201100
TAFHDC
TAF
KHDC 201135Z 2012/2112 03010KT P6SM OVC008
     FM201700 04010KT P6SM BKN015
     FM202000 04009KT P6SM BKN010
     FM202200 03008KT P6SM BKN050
     FM211000 05007KT P6SM BKN020
      AMD NOT SKED=

USA.gov is the U.S. government's official web portal to all federal, state and local government web resources and services.